Location: Hobi?a Gr?di?te
(45.4833°N, 22.7833°E)
Time: 10:17:42
(UTC+00:00)

Cosmos 676 Rocket - Pass Details

Date: 28 January 2023
Orbit: 754 x 782 km, 74.0° (Epoch: 30 March)

Event Time Altitude Azimuth Distance (km) Brightness Sun altitude
Rises 17:30:36 0° 184° (S) 3,251 7.4 -21.3°
Reaches altitude 10° 17:33:02 10° 179° (S) 2,325 6.5 -21.7°
Enters shadow 17:37:51 50° 116° (ESE) 983 4.2 -22.5°
